Regional Weather Roundup
Issued by NWS

Home | Current Version | Previous Version | Graphics & Text | Print | Product List | Glossary On
Versions: 1 2 3 4 5 6 7 8 9 10 11 12 13 14 15 16 17 18 19 20 21 22 23 24 25 26 27 28 29 30 31 32 33 34 35 36 37 38 39 40 41 42 43 44 45 46 47 48 49 50
000
ASUS45 KPSR 230910
RWRAZ

ARIZONA REGIONAL HOURLY WEATHER ROUNDUP
NATIONAL WEATHER SERVICE PHOENIX AZ
200 AM MST SAT AUG 23 2014

NOTE: FAIR INDICATES FEW OR NO CLOUDS BELOW 12,000 FEET WITH NO
SIGNIFICANT WEATHER AND/OR OBSTRUCTIONS TO VISIBILITY.

AZZ001>003-036-231000-
NORTHWEST ARIZONA

CITY           SKY/WX    TMP DP  RH WIND       PRES   REMARKS
BULLHEAD CITY  CLEAR     81  57  44 SE5       29.84R
KINGMAN        CLEAR     64  56  75 SE9       30.00S
$$

AZZ004>008-015-016-018-231000-
NORTH CENTRAL ARIZONA

CITY           SKY/WX    TMP DP  RH WIND       PRES   REMARKS
GRAND CANYON     N/A    N/A N/A N/A MISG        N/A
WILLIAMS       CLEAR     52  48  87 S6        30.26F
PRESCOTT       CLEAR     60  51  72 S3        30.12F
FLAGSTAFF      CLOUDY    53  49  86 VRB3      30.22F
PAYSON         CLEAR     59  52  77 CALM      30.16S
PAGE           CLEAR     72  48  42 SW6       29.99S
$$

AZZ009>014-017-231000-
NORTHEAST ARIZONA

CITY           SKY/WX    TMP DP  RH WIND       PRES   REMARKS
WINSLOW        CLEAR     59  53  80 SE5       30.11S
SAINT JOHNS    CLEAR     56  50  80 S5        30.17R
SHOW LOW       CLEAR     55  46  71 S14       30.22S
$$

AZZ023-231000-
GREATER PHOENIX AREA

CITY           SKY/WX    TMP DP  RH WIND       PRES   REMARKS
PHOENIX        CLEAR     80  64  58 E7        29.88S
BUCKEYE          N/A     73  66  78 NE6       29.89S
LUKE AFB       NOT AVBL
DEER VALLEY    CLEAR     75  66  73 CALM      29.90F
SCOTTSDALE     CLEAR     78  64  61 CALM      29.92S
MESA-GATEWAY   CLEAR     75  59  57 SE6       29.93S
$$

AZZ027-028-231000-
SOUTHWEST MARICOPA COUNTY AND PINAL COUNTY

CITY           SKY/WX    TMP DP  RH WIND       PRES   REMARKS
CASA GRANDE    CLEAR     73  52  46 CALM      29.93S
$$

AZZ503-504-507>509-231000-
SOUTHEAST ARIZONA

CITY           SKY/WX    TMP DP  RH WIND       PRES   REMARKS
TUCSON         CLEAR     76  63  64 SE7       30.02S
DAVIS-MONTHAN  CLEAR     74  64  70 S6        30.01S
NOGALES        CLEAR     66  61  84 CALM      30.09F
SIERRA VISTA   CLEAR     65  60  84 SW6       30.13F
DOUGLAS        CLEAR     63  60  90 E5        30.11S
SAFFORD        MOCLDY    73  57  57 CALM      30.01S
$$

AZZ020-021-025-026-031-231000-
SOUTHWEST ARIZONA

CITY           SKY/WX    TMP DP  RH WIND       PRES   REMARKS
YUMA           CLEAR     83  63  50 SE3       29.84S
$$

CAZ031-033-041-043-047-048-061-231000-
SOUTHERN CALIFORNIA

CITY           SKY/WX    TMP DP  RH WIND       PRES   REMARKS
DOWNTOWN L.A.  CLOUDY    68  61  78 W3        29.94S
L.A. AIRPORT   CLOUDY    68  62  81 N3        29.95S
SAN DIEGO      PTCLDY    68  62  81 NE5       29.95F
BURBANK        CLOUDY    65  61  87 S5        29.95S
ONTARIO        CLEAR     66  61  84 W3        29.96S
RIVERSIDE      CLEAR     66  61  84 CALM      29.96S
PALM SPRINGS   CLEAR     84  33  16 NW7       29.84S
EL CENTRO NAS  CLEAR     78  51  38 SW8       29.81F
IMPERIAL       CLEAR     77  54  44 W9        29.81S
BLYTHE         CLEAR     80  54  40 S7        29.82S
NEEDLES        CLEAR     83  53  35 E5        29.84R
$$

NVZ020-UTZ003-231000-
SOUTHERN NEVADA-UTAH

CITY           SKY/WX    TMP DP  RH WIND       PRES   REMARKS
LAS VEGAS      CLEAR     82  49  31 S18G25    29.80S
SALT LAKE CITY LGT RAIN  58  51  78 CALM      30.01R
$$

NMZ009-TXZ055-231000-
NEW MEXICO-WEST TEXAS

CITY           SKY/WX    TMP DP  RH WIND       PRES   REMARKS
ALBUQUERQUE    PTCLDY    60  54  80 S3        30.17S
EL PASO        MOCLDY    70  59  68 SW7       30.06F
$$


........................KEY........................
SKY/WX - SKY CONDITION/WEATHER
TMP    - TEMPERATURE IN FAHRENHEIT
DP     - DEW POINT IN FAHRENHEIT
RH     - RELATIVE HUMIDITY IN PERCENT
WIND   - DIRECTION AND SPEED IN MILES PER HOUR (MPH)
VRB    - VARIABLE WIND DIRECTION
PRES   - MEAN SEA LEVEL PRESSURE IN INCHES OF MERCURY
         F - FALLING PRESSURE   R - RISING PRESSURE
         S - STEADY PRESSURE
VSB    - VISIBILITY IN MILES
HX     - HEAT INDEX IN FAHRENHEIT
WCI    - WIND CHILL INDEX IN FAHRENHEIT
TC     - TEMPERATURE IN CELSIUS WHICH IS ALSO KNOWN AS
         TEMPERATURE IN CENTIGRADE
AFB    - AIR FORCE BASE
         LUKE AFB IS LUKE AIR FORCE BASE
         DAVIS-MONTHAN IS DAVIS-MONTHAN AIR FORCE BASE
NAS    - NAVAL AIR STATION
         EL CENTRO NAS IS EL CENTRO NAVAL AIR STATION
N/A    - NOT AVAILABLE


USA.gov is the U.S. government's official web portal to all federal, state and local government web resources and services.